Location: Les Jeannots
(43.2262°N, 5.5774°E)
Time: 08:18:22
(UTC+00:00)

OAO 2 Rocket - Pass Details

Date: 05 July 2020
Orbit: 676 x 745 km, 35.0° (Epoch: 04 August)

Event Time Altitude Azimuth Distance (km) Brightness Sun altitude
Rises 19:57:01 0° 236° (SW) 3,150 6.9 -6.2°
Reaches altitude 10° 19:59:43 10° 225° (SW) 2,236 6.0 -6.6°
Maximum altitude 20:04:10 28° 167° (SSE) 1,362 4.4 -7.2°
Drops below altitude 10° 20:08:40 10° 109° (ESE) 2,251 5.4 -7.8°
Enters shadow 20:09:32 - 105° (ESE) 2,531 5.6 -8.0°
